Location: Kalberh�ni
(46.4610°N, 7.2453°E)
Time: 08:35:31
(UTC+00:00)

deb Kosmos-2227 - Pass Details

Date: 18 August 2022
Orbit: 774 x 865 km, 70.9° (Epoch: 26 September)

Event Time Altitude Azimuth Distance (km) Brightness Sun altitude
Rises 22:14:44 0° 334° (NNW) 3,350 ? -28.0°
Reaches altitude 10° 22:17:09 10° 337° (NNW) 2,429 ? -28.2°
Enters shadow 22:22:35 71° 48° (NE) 884 ? -28.5°
